Regional Weather Roundup
Issued by NWS Charleston, SC

Current Version | Previous Version | Graphics & Text | Print | Product List | Glossary On
Versions: 1 2 3 4 5 6 7 8 9 10 11 12 13 14 15 16 17 18 19 20 21 22 23 24 25 26 27 28 29 30 31 32 33 34 35 36 37 38 39 40 41 42 43 44 45 46 47 48 49 50
000 ASUS42 KCHS 261112 RWRCHS Regional Weather Roundup National Weather Service Charleston SC 700 AM EDT THU APR 26 2018 NOTE: "fair" indicates few or no clouds below 12,000 feet with no significant weather and/or obstructions to visibility. Not all stations are quality controlled. Use data with caution, especially dewpoint observations. SCZ027-030-031-034>040-042>050-261200- ...Southeast South Carolina... CITY SKY/WX TMP DP RH WIND PRES REMARKS N Charleston FAIR 56 54 93 CALM 29.85R Waterfront Prk N/A 61 57 87 CALM 29.70R Mount Pleasant FAIR 57 55 94 CALM 29.86R Johns Island FAIR 55 54 94 CALM 29.86R FOG Pinopolis N/A 61 57 88 VRB3 29.75R Moncks Corner FAIR 54 52 94 CALM 29.85R Summerville FAIR 54 52 94 CALM 29.86R Beaufort MCAS FAIR 55 54 96 SW5 29.87R Beaufort Arpt FAIR 57 54 88 W3 29.86S FOG Hilton Head Is CLEAR 59 55 88 SW6 29.88R Walterboro FAIR 52 52 100 CALM 29.86R Allendale FAIR 54 54 100 CALM 29.85R ...Southern Midlands and Pee Dee... CITY SKY/WX TMP DP RH WIND PRES REMARKS Georgetown FAIR 55 54 94 CALM 29.85S Kingstree FAIR 57 55 94 CALM 29.85S Orangeburg FAIR 54 52 93 CALM 29.85R Barnwell FAIR 52 50 93 CALM 29.85R Aiken FAIR 52 50 93 CALM 29.88R Manning FAIR 50 50 100 CALM 29.85R Columbia FAIR 54 53 97 CALM 29.84S Sumter FAIR 57 52 82 CALM 29.83R Florence MOCLDY 60 54 80 NE6 29.86R Myrtle Beach FAIR 57 56 96 CALM 29.86R N Myrtle Beach FAIR 57 57 100 CALM 29.85R $$ GAZ063-065-086>088-099>101-113>116-118-119-134>141-150-261200- ...Southeast Georgia... CITY SKY/WX TMP DP RH WIND PRES REMARKS Savannah Arpt FAIR 56 53 90 CALM 29.87S Hunter AAF FAIR 55 52 88 CALM 29.84S Fort Stewart FAIR 53 52 94 CALM 29.85S Statesboro FAIR 51 32 48 CALM 29.87R Sylvania FAIR 53 53 100 CALM 29.87R Claxton FAIR 51 51 98 CALM 29.87S ...CSRA, Central and far Southeast Georgia... CITY SKY/WX TMP DP RH WIND PRES REMARKS Thomson FAIR 49 47 94 CALM 29.91R Augusta-Bush FAIR 51 50 96 CALM 29.85R Augusta-Daniel FAIR 56 53 90 N5 29.85R Swainsboro FAIR 50 50 100 CALM 29.88R Vidalia FAIR 54 50 87 CALM 29.87S Eastman HAZE 51 45 79 CALM 29.90S VSB<1/4 Hazlehurst FAIR 56 53 90 CALM 29.87S Alma FOG 52 50 93 CALM 29.87S VSB 1 Waycross FAIR 54 51 90 CALM 29.89S Jesup NOT AVBL Baxley FAIR 50 50 100 CALM 29.87F Brunswick FAIR 55 52 88 CALM 29.89R Saint Simons FAIR 59 56 89 CALM 29.88R $$ SCZ027-028-034-036>038-045-046-048>050-GAZ119-141-261200- ...Lake and Supplemental Coastal Observations... STATION/POSITION TIME TEMP WIND PRES WAVE SWELL AIR SEA DIR/SP/G HT/PER HT/PER/DIR (UTC) (F) (DEG/KT/KT) (MB) (FT/S) (FT/S/D) Winyah Bay 0945 60 270/ 1 1010.0 Lake Murray 1020 59 CALM / 1 1010.2 ACE Basin NERRS 0945 56 CALM N/A Fort Pulaski 1042 62 66 280/ 7/ 8 1011.7R Sapelo Island 1000 61 300/ 1 1011.0 $$ ANZ835-935-AMZ111-154-330-350-352-354-370-450-454-472-261200- ...C-MAN and Buoy Observations... STATION/POSITION TIME TEMP WIND PRES WAVE SWELL AIR SEA DIR/SP/G HT/PER HT/PER/DIR (UTC) (F) (DEG/KT/KT) (MB) (FT/S) (FT/S/D) Buoy 41004 1050 69 240/ 6/ 8 1011.1R 4/ 8 3/120/ 8 Buoy 41008 1050 65 66 310/ 8/ 10 1011.2R 2/ 9 2/ 90/ 9 Folly Beach CMAN 1000 62 270/ 3/ 4 1011.0R Capers Nearshore 1008 64 65 270/ 4/ 6 1010.8R Fripp Nearshore 1008 63 65 280/ 8/ 12 1010.4R STATION/POSITION TIME TEMP WIND PRES WAVE SWELL AIR SEA DIR/SP/G HT/PER HT/PER/DIR (UTC) (F) (DEG/KT/KT) (MB) (FT/S) (FT/S/D) 5E St. Marys GA 1100 69 N/A 2/ 9 Frying Pan Buoy 1050 68 70 240/ 2/ 4 1010.7R 5/ 9 5/120/ 9 Buoy 41025 1050 65 70 290/ 10/ 14 1011.0R 6/ 9 7/120/ 9 Cape Lookout NC 1000 240/ 4/ 5 1010.9R Buoy 41002 1050 71 73 230/ 12/ 14 1011.8R 7/ 7 5/240/ 7 Buoy 41010 1050 75 76 170/ 12/ 14 1012.3R 5/ 9 5/ 70/ 9 St Augustine FL 1100 62 67 260/ 5/ 6 1012.1R $$

USA.gov is the U.S. government's official web portal to all federal, state and local government web resources and services.